Location: Chin
(49.7667°N, 112.4500°W)
Time: 10:54:13
(UTC+00:00)

N. Korean satellite - Pass Details

Date: 04 December 2021
Orbit: 447 x 491 km, 97.3° (Epoch: 21 January)

Event Time Altitude Azimuth Distance (km) Brightness Sun altitude
Rises 14:12:51 0° 355° (N) 2,474 9.9 -8.8°
Reaches altitude 10° 14:15:50 10° 325° (NW) 1,589 8.7 -8.4°
Maximum altitude 14:17:20 13° 299° (WNW) 1,435 8.3 -8.2°
Drops below altitude 10° 14:18:50 10° 273° (W) 1,580 8.6 -8.0°
Sets 14:21:48 0° 243° (WSW) 2,444 9.8 -7.5°
